Weather History for Walla Walla, WA

Change the Weather History Date:

Monday, February 11, 2013

  Actual Average Record
Temperature  
Mean Temperature 39 °F -  
Max Temperature 48 °F 47 °F 64 °F (1983)
Min Temperature 30 °F 33 °F 18 °F (1989)
Degree Days  
Heating Degree Days 26    
Moisture  
Dew Point 31 °F    
Average Humidity 69    
Maximum Humidity 77    
Minimum Humidity 56    
Precipitation  
Precipitation 0.00 in - - ()
Sea Level Pressure  
Sea Level Pressure 30.24 in    
Wind  
Wind Speed 7 mph (South)    
Max Wind Speed 15 mph    
Max Gust Speed -    
Visibility 10 miles    
Events      
Averages and records for this station are not official NWS values.
T = Trace of Precipitation, MM = Missing Value Source: NWS Daily Summary

Daily Weather History Graph

Daily Weather History Graph

Search for Another Location

Airport:

Trip Planner

Search our weather history database for the weather conditions in past years. The results will help you decide how hot, cold, wet, or windy it might be!

Date:

Astronomy

Feb. 11, 2013 Rise Set
Actual Time 7:01 AM PST 5:13 PM PST
Civil Twilight 6:30 AM PST 5:44 PM PST
Nautical Twilight 5:55 AM PST 6:20 PM PST
Astronomical Twilight 5:20 AM PST 6:54 PM PST
Moon 7:20 AM PST (2/11) 7:26 PM PST (2/11)
Length of Visible Light 11h 14m
Length of Day
10h 12m
Waxing Crescent, 3% of the Moon is Illuminated
Feb 11
Waxing Crescent
Feb 17
First Quarter
Feb 25
Full
Mar 4
Last Quarter
Mar 11
New

Hourly Weather History & Observations

Time (PST) Temp. Windchill Dew Point Humidity Pressure Visibility Wind Dir Wind Speed Gust Speed Precip Events Conditions
1:53 AM 35.1 °F 32.2 °F 27.0 °F 72% 30.22 in 10.0 mi NW 3.5 mph - N/A   Clear
2:53 AM 33.1 °F 30.0 °F 25.0 °F 72% 30.21 in 10.0 mi ESE 3.5 mph - N/A   Clear
3:53 AM 33.1 °F 28.7 °F 24.1 °F 70% 30.22 in 10.0 mi ESE 4.6 mph - N/A   Clear
4:53 AM 30.9 °F 24.3 °F 24.1 °F 76% 30.24 in 10.0 mi SE 6.9 mph - N/A   Clear
5:53 AM 33.1 °F 26.1 °F 25.0 °F 72% 30.24 in 10.0 mi SSE 8.1 mph - N/A   Clear
6:53 AM 32.0 °F 25.6 °F 25.0 °F 75% 30.23 in 10.0 mi South 6.9 mph - N/A   Clear
7:53 AM 35.1 °F 29.3 °F 27.0 °F 72% 30.24 in 10.0 mi SSW 6.9 mph - N/A   Clear
8:53 AM 39.9 °F 35.8 °F 28.0 °F 63% 30.25 in 10.0 mi South 5.8 mph - N/A   Clear
9:53 AM 42.1 °F 36.6 °F 30.0 °F 62% 30.25 in 10.0 mi SSW 9.2 mph - N/A   Clear
10:53 AM 44.1 °F 38.1 °F 32.0 °F 63% 30.25 in 10.0 mi SW 11.5 mph - N/A   Clear
11:53 AM 45.0 °F 39.7 °F 33.1 °F 63% 30.24 in 10.0 mi WSW 10.4 mph - N/A   Clear
12:53 PM 46.9 °F - 33.1 °F 59% 30.23 in 10.0 mi SW 15.0 mph - N/A   Clear
1:53 PM 48.0 °F - 33.1 °F 56% 30.22 in 10.0 mi SSW 8.1 mph - N/A   Clear
2:53 PM 46.9 °F - 35.1 °F 63% 30.22 in 10.0 mi West 11.5 mph - N/A   Clear
3:53 PM 45.0 °F 40.6 °F 35.1 °F 68% 30.23 in 10.0 mi West 8.1 mph - N/A   Clear
4:53 PM 44.1 °F 42.5 °F 35.1 °F 71% 30.25 in 10.0 mi SW 3.5 mph - N/A   Overcast
5:53 PM 39.9 °F 35.8 °F 33.1 °F 77% 30.25 in 10.0 mi SE 5.8 mph - N/A   Clear
6:53 PM 42.1 °F 37.1 °F 32.0 °F 67% 30.25 in 10.0 mi SSE 8.1 mph - N/A   Clear
7:53 PM 43.0 °F 38.2 °F 33.1 °F 68% 30.25 in 10.0 mi SSE 8.1 mph - N/A   Scattered Clouds
8:53 PM 44.1 °F 38.6 °F 35.1 °F 71% 30.26 in 10.0 mi South 10.4 mph - N/A   Overcast
9:53 PM 42.1 °F 37.7 °F 35.1 °F 76% 30.27 in 10.0 mi South 6.9 mph - N/A   Overcast
10:53 PM 41.0 °F 36.4 °F 34.0 °F 76% 30.28 in 10.0 mi South 6.9 mph - N/A   Overcast
11:53 PM 42.1 °F 36.1 °F 34.0 °F 73% 30.29 in 10.0 mi South 10.4 mph - N/A   Overcast